[[{"header":{"parameterUnit":"m.s-1","parameterCategory":1,"la1":30.2991,"la2":30.254,"lo1":-89.0895,"lo2":-89.0444,"dy":0.0017,"dx":0.0017,"nx":28,"ny":28,"refTime":"2024-06-02T09:00:00:Z","depth":0,"parameterNumber":2,"parameterNumberName":"U-component_of_WINDS"},"data":[0,0,0,0,0,0,0,0,0,0,0,0,0,0,0,0,0,0,0,0,0,0,0,0,0,0,0,0,0,0,0,0,0,0,0,0,0,0,0,0,0,0,0,0,0,0,0,0,0,0,0,0,0,0,0,0,0,0,-3.0944,-3.0943,0,-3.0872,-3.0871,-3.087,-3.0746,-3.0743,-3.0741,-3.0739,-3.0667,-3.0667,-3.0667,0,0,0,0,0,0,0,0,0,0,0,0,0,-3.0976,-3.0976,-3.0944,-3.0943,-3.0942,-3.0872,-3.0871,-3.087,-3.0746,-3.0743,-3.074,-3.0738,-3.0667,-3.0667,-3.0667,0,0,0,0,0,0,0,0,0,0,0,0,0,-3.0939,-3.0976,-3.0944,-3.0872,-3.0864,-3.0872,-3.0871,-3.087,-3.0747,-3.0743,-3.074,-3.0736,-3.0666,-3.0667,-3.0667,-3.074,0,0,-3.0668,-3.0669,0,0,0,0,0,0,0,0,-3.0941,-3.0938,-3.0883,-3.0877,-3.0869,-3.0814,-3.0856,-3.0826,-3.0748,-3.0792,-3.0739,-3.0735,-3.0719,-3.0715,-3.0709,-3.0737,-3.0734,-3.0668,-3.0669,-3.0669,-3.0669,0,0,0,0,0,0,0,-3.0944,-3.094,-3.0915,-3.0883,-3.0874,-3.0844,-3.0834,-3.085,-3.0776,-3.0787,-3.0778,-3.0771,-3.0714,-3.0709,-3.0706,-3.0733,-3.0668,-3.0669,-3.0669,-3.0669,-3.0817,-3.082,0,0,0,0,0,0,-3.0957,-3.0943,-3.0918,-3.0913,-3.0897,-3.0846,-3.0836,-3.0835,-3.0775,-3.0763,-3.0774,-3.0766,-3.071,-3.0706,-3.0703,-3.0784,-3.0669,-3.0669,-3.0669,-3.0813,-3.0818,-3.0822,0,0,0,0,0,0,-3.0958,-3.0956,-3.092,-3.0926,-3.0919,-3.0849,-3.085,-3.0836,-3.083,-3.0765,-3.0752,-3.0782,-3.0707,-3.0703,-3.0732,-3.0779,-3.0669,-3.067,-3.0809,-3.0815,-3.082,-3.0946,0,0,0,0,0,0,-3.0959,-3.0957,-3.0983,-3.0927,-3.0919,-3.095,-3.0853,-3.0837,-3.0831,-3.0819,-3.0769,-3.0758,-3.0704,-3.0732,-3.0732,-3.0778,-3.067,-3.0804,-3.0812,-3.0818,-3.0938,-3.0956,-3.0971,0,0,0,0,0,-3.0961,-3.1022,-3.0985,-3.0983,-3.095,-3.0953,-3.0948,-3.0885,-3.0835,-3.0861,-3.082,-3.0759,-3.0775,-3.0736,-3.0735,-3.0782,-3.0801,-3.0809,-3.0818,-3.093,-3.0952,-3.0971,0,0,0,0,0,0,-3.1085,-3.1013,-3.0971,-3.1016,-3.0992,-3.0932,-3.0962,-3.091,-3.0899,-3.0888,-3.0811,-3.0801,-3.084,-3.0814,-3.0772,-3.085,-3.0778,-3.0787,-3.0864,-3.0885,-3.0901,-3.0905,-3.067,0,0,0,0,0,-3.1118,-3.1126,-3.1062,-3.1108,-3.1098,-3.1033,-3.1032,-3.0985,-3.0957,-3.0946,-3.0906,-3.0882,-3.0881,-3.0882,-3.0877,-3.0934,-3.0921,-3.0966,-3.0983,-3.0997,-3.1005,-3.1033,-3.1051,-3.0849,-3.0849,-3.0849,0,0,-3.1185,-3.1147,-3.1156,-3.1132,-3.1107,-3.1117,-3.1025,-3.1039,-3.1046,-3.0948,-3.0972,-3.0943,-3.0911,-3.0954,-3.0971,-3.0934,-3.1058,-3.1008,-3.1019,-3.1019,-3.1043,-3.1062,-3.1079,-3.0855,-3.0854,-3.0853,0,0,-3.1312,-3.1285,-3.1319,-3.1297,-3.1261,-3.1218,-3.1227,-3.1175,-3.1152,-3.1175,-3.1102,-3.111,-3.111,-3.109,-3.1079,-3.1202,-3.1145,-3.1203,-3.1289,-3.1317,-3.1333,-3.1347,-3.1389,-3.1405,-3.1211,-3.1212,-3.1212,0,-3.14,-3.1411,-3.1344,-3.1362,-3.1354,-3.1266,-3.1301,-3.1283,-3.1248,-3.1245,-3.1204,-3.1203,-3.1175,-3.1212,-3.1242,-3.1237,-3.1244,-3.1207,-3.1336,-3.1349,-3.1361,-3.14,-3.1417,-3.1219,-3.1218,-3.1217,-3.1216,0,-3.1521,-3.153,-3.1563,-3.1531,-3.1526,-3.1553,-3.149,-3.1494,-3.1449,-3.1411,-3.1436,-3.14,-3.1387,-3.1393,-3.1349,-3.1424,-3.1402,-3.135,-3.1276,-3.1389,-3.1424,-3.1439,-3.1229,-3.1226,-3.1224,-3.1222,0,0,-3.1721,-3.1653,-3.1666,-3.165,-3.1605,-3.1611,-3.1636,-3.1622,-3.1627,-3.1607,-3.1624,-3.1628,-3.158,-3.1569,-3.1522,-3.1547,-3.1645,-3.1492,-3.149,-3.152,-3.1725,-3.1763,-3.1781,-3.1609,-3.1611,-3.1613,-3.1727,0,-3.1837,-3.1872,-3.1813,-3.1862,-3.187,-3.1788,-3.1809,-3.1784,-3.175,-3.1752,-3.1714,-3.1717,-3.1654,-3.1647,-3.1668,-3.1629,-3.1685,-3.162,-3.1623,-3.1624,-3.1632,-3.18,-3.184,-3.1948,-3.1741,-3.1743,-3.1745,0,-3.1976,-3.1962,-3.2013,-3.1965,-3.1966,-3.1986,-3.1969,-3.1973,-3.1944,-3.1917,-3.1906,-3.1851,-3.1871,-3.1803,-3.183,-3.1788,-3.1786,-3.1767,-3.177,-3.1766,-3.169,-3.1799,-3.1982,-3.1998,-3.1766,-3.1765,-3.1763,0,-3.2115,-3.211,-3.2139,-3.2128,-3.2074,-3.209,-3.2069,-3.2036,-3.2032,-3.2019,-3.2016,-3.2005,-3.1999,-3.1993,-3.1937,-3.1893,-3.1971,-3.1898,-3.1949,-3.195,-3.1967,-3.1966,-3.215,-3.197,-3.197,-3.197,-3.1969,0,-3.2249,-3.2283,-3.22,-3.2218,-3.2253,-3.2186,-3.2223,-3.2194,-3.2166,-3.2177,-3.2107,-3.2119,-3.2046,-3.205,-3.2007,-3.2036,-3.2034,-3.2013,-3.2001,-3.2018,-3.202,-3.2014,-3.2004,-3.1974,-3.1973,-3.1972,-3.1972,0,-3.2409,-3.2355,-3.2381,-3.2329,-3.2316,-3.2345,-3.23,-3.2315,-3.2277,-3.2292,-3.2291,-3.2232,-3.2234,-3.2178,-3.2169,-3.214,-3.2187,-3.2162,-3.2196,-3.2188,-3.2241,-3.2236,-3.2426,-3.2447,-3.2256,-3.2258,-3.226,0,-3.2496,-3.252,-3.247,-3.2473,-3.2454,-3.2459,-3.2455,-3.2391,-3.239,-3.2359,-3.2378,-3.2374,-3.2367,-3.2374,-3.233,-3.2323,-3.2296,-3.2363,-3.2294,-3.2311,-3.2294,-3.2293,-3.2294,-3.2376,-3.2379,-3.2381,-3.2382,0,-3.2657,-3.263,-3.2626,-3.2614,-3.2611,-3.2599,-3.2582,-3.2588,-3.2518,-3.2521,-3.2521,-3.2516,-3.2507,-3.2504,-3.2489,-3.2467,-3.2413,-3.2405,-3.2416,-3.2432,-3.245,-3.244,-3.2233,-3.24,-3.2398,-3.2397,-3.2396,-3.2395,-3.2782,-3.2799,-3.2767,-3.2766,-3.2746,-3.2733,-3.2743,-3.2708,-3.2707,-3.2694,-3.2657,-3.2664,-3.2636,-3.261,-3.2593,-3.2598,-3.2565,-3.2581,-3.2585,-3.2589,-3.2599,-3.2452,-3.2596,-3.2595,-3.2594,-3.2594,-3.2594,0,-3.2937,-3.2913,-3.2913,-3.2891,-3.2891,-3.2841,-3.2821,-3.2823,-3.283,-3.2808,-3.2803,-3.2805,-3.2802,-3.2759,-3.2751,-3.2763,-3.2739,-3.2763,-3.276,-3.2756,-3.263,-3.262,-3.2783,-3.2783,-3.2783,-3.2783,-3.2783,-3.2783,-3.3018,-3.3044,-3.3014,-3.303,-3.3006,-3.3012,-3.3004,-3.2991,-3.2973,-3.2978,-3.2975,-3.2947,-3.2917,-3.2907,-3.2902,-3.289,-3.2889,-3.2922,-3.2902,-3.2784,-3.2765,-3.2748,-3.2738,-3.2923,-3.2923,-3.3027,-3.3028,-3.3029]},{"header":{"parameterUnit":"m.s-1","parameterCategory":1,"la1":30.2991,"la2":30.254,"lo1":-89.0895,"lo2":-89.0444,"dy":0.0017,"dx":0.0017,"nx":28,"ny":28,"refTime":"2024-06-02T09:00:00:Z","depth":0,"parameterNumber":3,"parameterNumberName":"V-component_of_WINDS"},"data":[0,0,0,0,0,0,0,0,0,0,0,0,0,0,0,0,0,0,0,0,0,0,0,0,0,0,0,0,0,0,0,0,0,0,0,0,0,0,0,0,0,0,0,0,0,0,0,0,0,0,0,0,0,0,0,0,0,0,2.368,2.368,0,2.3629,2.3629,2.3628,2.3602,2.3602,2.3602,2.3602,2.3544,2.3542,2.3541,0,0,0,0,0,0,0,0,0,0,0,0,0,2.375,2.3749,2.368,2.3679,2.3679,2.3629,2.3629,2.3628,2.3602,2.3602,2.3602,2.3602,2.3544,2.3543,2.3541,0,0,0,0,0,0,0,0,0,0,0,0,0,2.3711,2.3748,2.368,2.366,2.3658,2.363,2.3629,2.3628,2.3602,2.3602,2.3602,2.3602,2.3545,2.3543,2.354,2.3526,0,0,2.3533,2.3532,0,0,0,0,0,0,0,0,2.3713,2.3709,2.3664,2.3661,2.3659,2.3622,2.3632,2.3594,2.3602,2.3623,2.3602,2.3602,2.3569,2.3565,2.3555,2.3524,2.3521,2.3533,2.3532,2.3531,2.353,0,0,0,0,0,0,0,2.3716,2.3711,2.366,2.3663,2.366,2.3652,2.3647,2.3624,2.3597,2.3621,2.3619,2.3614,2.3568,2.3558,2.3554,2.352,2.3533,2.3531,2.353,2.3529,2.3475,2.3475,0,0,0,0,0,0,2.3723,2.3713,2.3661,2.3658,2.3687,2.3651,2.3645,2.3634,2.3597,2.3591,2.3614,2.3613,2.3562,2.3557,2.3552,2.3533,2.3531,2.3529,2.3527,2.3475,2.3475,2.3475,0,0,0,0,0,0,2.3724,2.3718,2.3663,2.3685,2.3678,2.365,2.3638,2.3633,2.3623,2.3592,2.3586,2.3609,2.3561,2.3555,2.3533,2.3531,2.3528,2.3525,2.3475,2.3475,2.3475,2.3496,0,0,0,0,0,0,2.3727,2.3719,2.3715,2.3685,2.3677,2.3648,2.3638,2.3632,2.3619,2.3617,2.3585,2.358,2.3561,2.3537,2.3531,2.3527,2.3524,2.3475,2.3475,2.3475,2.3495,2.3496,2.3498,0,0,0,0,0,2.3729,2.3721,2.3715,2.3708,2.3671,2.3648,2.3642,2.3623,2.3619,2.3614,2.3594,2.3581,2.3532,2.3535,2.3528,2.3524,2.3475,2.3475,2.3475,2.3495,2.3496,2.3498,0,0,0,0,0,0,2.3748,2.3717,2.3709,2.3692,2.3673,2.3643,2.3636,2.3625,2.3605,2.3603,2.3578,2.3571,2.3552,2.3535,2.3539,2.3509,2.3502,2.3501,2.352,2.3521,2.3522,2.3526,2.3522,0,0,0,0,0,2.3751,2.3737,2.3709,2.3696,2.3688,2.3664,2.3653,2.3639,2.3618,2.3609,2.3587,2.3565,2.3545,2.3532,2.3512,2.3493,2.3485,2.3487,2.3488,2.3489,2.3488,2.3477,2.3477,2.3474,2.3474,2.3474,0,0,2.3755,2.3736,2.3728,2.37,2.3684,2.3668,2.3657,2.364,2.3628,2.3606,2.3585,2.3568,2.3542,2.3522,2.3512,2.3508,2.3487,2.3489,2.349,2.3488,2.3477,2.3477,2.3477,2.3474,2.3474,2.3474,0,0,2.3755,2.374,2.3728,2.3713,2.3689,2.3674,2.3671,2.3643,2.3632,2.3611,2.3595,2.3579,2.3544,2.3527,2.3513,2.3508,2.3495,2.3502,2.3508,2.3498,2.3498,2.3498,2.3496,2.3496,2.3501,2.3501,2.3501,0,2.3763,2.3741,2.3723,2.3708,2.3696,2.3678,2.3665,2.365,2.362,2.3611,2.3608,2.3565,2.3546,2.3522,2.3521,2.3511,2.3506,2.3505,2.35,2.3499,2.3499,2.3497,2.3496,2.3502,2.3502,2.3502,2.3502,0,2.3752,2.3736,2.3729,2.3704,2.3691,2.3677,2.3655,2.3644,2.3632,2.3617,2.3595,2.3572,2.3547,2.3541,2.3528,2.3515,2.3513,2.3505,2.3498,2.3501,2.3498,2.3497,2.3504,2.3503,2.3503,2.3503,0,0,2.3761,2.3727,2.3725,2.3714,2.3687,2.3674,2.3659,2.3637,2.3628,2.3608,2.3594,2.3566,2.3559,2.3544,2.3529,2.352,2.3518,2.3513,2.3512,2.3515,2.3502,2.3508,2.3507,2.351,2.351,2.3509,2.3504,0,2.3757,2.3732,2.3716,2.3696,2.3682,2.3665,2.3652,2.3633,2.3619,2.3603,2.3585,2.3566,2.3559,2.3549,2.354,2.352,2.3515,2.3521,2.3495,2.3494,2.3502,2.3506,2.3512,2.3508,2.3503,2.3503,2.3503,0,2.3749,2.3733,2.3712,2.3689,2.3682,2.3671,2.3649,2.3635,2.3613,2.3603,2.3587,2.3573,2.3555,2.3551,2.3525,2.353,2.3518,2.3507,2.3507,2.3503,2.3498,2.3501,2.3506,2.3505,2.3501,2.3501,2.3501,0,2.3758,2.373,2.3715,2.3705,2.3677,2.367,2.3657,2.3636,2.3624,2.3605,2.3597,2.3575,2.3563,2.3546,2.3526,2.3524,2.3502,2.3496,2.3492,2.3493,2.3487,2.3488,2.3489,2.3481,2.3481,2.3481,2.3481,0,2.3755,2.3743,2.3719,2.3709,2.3695,2.3676,2.3663,2.3648,2.363,2.3616,2.36,2.3587,2.3561,2.3545,2.3528,2.351,2.3504,2.3495,2.349,2.3496,2.3497,2.3487,2.3487,2.3481,2.3481,2.3481,2.3481,0,2.3762,2.3746,2.3728,2.3703,2.3697,2.3688,2.3666,2.3655,2.364,2.3623,2.3618,2.3594,2.3574,2.3552,2.3524,2.3513,2.3495,2.3489,2.3503,2.3501,2.3498,2.3498,2.3493,2.3491,2.3485,2.3485,2.3485,0,2.3761,2.3752,2.3728,2.3719,2.3707,2.3692,2.3681,2.3662,2.365,2.3626,2.3618,2.3597,2.358,2.3548,2.3527,2.3505,2.3498,2.3498,2.3495,2.3501,2.3498,2.3499,2.3497,2.3499,2.3499,2.3499,2.3499,0,2.3761,2.3754,2.3739,2.3722,2.3709,2.3694,2.3678,2.367,2.3648,2.3636,2.3616,2.3603,2.3576,2.3555,2.3531,2.3516,2.3503,2.3501,2.3498,2.3504,2.3512,2.3507,2.3505,2.35,2.35,2.35,2.35,2.35,2.3764,2.3755,2.3738,2.3722,2.3708,2.3694,2.3683,2.3668,2.3652,2.363,2.3619,2.36,2.3578,2.3546,2.3532,2.3515,2.3511,2.3508,2.3507,2.3506,2.3508,2.3516,2.351,2.351,2.351,2.351,2.351,0,2.3763,2.3751,2.3737,2.3716,2.3704,2.3696,2.3678,2.3667,2.3651,2.3633,2.3617,2.3595,2.3575,2.3553,2.3531,2.3522,2.3516,2.3517,2.3517,2.3514,2.3513,2.3517,2.3523,2.3523,2.3523,2.3523,2.3523,2.3523,2.3761,2.3747,2.3737,2.3715,2.3703,2.3686,2.3676,2.3662,2.3648,2.3625,2.3609,2.3596,2.3576,2.3554,2.3535,2.3529,2.3521,2.3524,2.3516,2.3515,2.3514,2.3513,2.3517,2.3523,2.3523,2.3519,2.3518,2.3518]}]]